Regional Weather Roundup
Issued by NWS

Home | Current Version | Previous Version | Graphics & Text | Print | Product List | Glossary Off
Versions: 1 2 3 4 5 6 7 8 9 10 11 12 13 14 15 16 17 18 19 20 21 22 23 24 25 26 27 28 29 30 31 32 33 34 35 36 37 38 39 40 41 42 43 44 45 46 47 48 49 50

000
ASUS45 KBOU 292207
RWRCO

WEATHER ROUNDUP FOR COLORADO
NATIONAL WEATHER SERVICE DENVER/BOULDER CO
400 PM MDT TUE JUL 29 2014

NOTE: "FAIR" INDICATES FEW OR NO CLOUDS BELOW 12000 FEET WITH NO
SIGNIFICANT WEATHER AND/OR OBSTRUCTIONS TO VISIBILITY.

COZ001>005-013-030-031-292300-
...NORTHWEST COLORADO...

CITY           SKY/WX    TMP DP  RH WIND       PRES   REMARKS
CRAIG          CLOUDY    60  58  92 E6        30.28F
HAYDEN         CLOUDY    64  54  68 N3        30.31F
MEEKER         PTSUNNY   71  53  52 S5        30.28F
MOUNT WERNER   NOT AVBL
STEAMBOAT SPGS CLOUDY    62  54  74 CALM      30.32F
WALDEN         CLOUDY    55  50  82 N7        30.39R
$$

COZ006>008-011-292300-
...WEST CENTRAL VALLEYS...

CITY           SKY/WX    TMP DP  RH WIND       PRES   REMARKS
GRAND JUNCTION PTSUNNY   77  59  53 E7        30.17F
MONTROSE       CLOUDY    75  57  53 CALM      30.26F
EAGLE          PTSUNNY   68  55  64 CALM      30.32F
RIFLE          PTSUNNY   74  57  55 N6        30.23F
DELTA          CLOUDY    77  61  57 W8        30.21F
NUCLA          CLOUDY    73  59  60 SW8       30.31S
$$

COZ017>023-064>068-292300-
...SOUTHWEST COLORADO...

CITY           SKY/WX    TMP DP  RH WIND       PRES   REMARKS
DURANGO        MOSUNNY   82  50  32 W15G22    30.25F
CORTEZ         PTSUNNY   81  53  37 VRB3      30.22F
PAGOSA SPRINGS MOSUNNY   78  45  30 SW13      30.32F
TELLURIDE      CLOUDY    55  52  88 E3        30.50S
WOLF CREEK PAS NOT AVBL
$$

COZ009-010-012-014-032>034-037-058>063-292300-
...CENTRAL COLORADO...

CITY           SKY/WX    TMP DP  RH WIND       PRES   REMARKS
ASPEN          LGT RAIN  61  54  77 S7        30.39F
BUENA VISTA    CLOUDY    70  47  44 CALM      30.34F
COPPER MTN     HAZE      52  46  82 W10       30.64F VSB 1/2
BERTHOUD PASS  HAZE      41  30  65 NE6       30.67F VSB<1/4
COTTONWOOD PAS CLOUDY    63  45  51 W6        30.48F
GUNNISON       PTSUNNY   70  48  46 N9        30.35F
KREMMLING      RAIN      63  52  67 W10       30.36S
LEADVILLE      CLOUDY    58  45  62 NW9       30.48F
MONARCH PASS   CLOUDY    48  45  87 W15G21    30.74S
SALIDA         CLOUDY    71  53  53 SW5       30.39F
SUNLIGHT       CLOUDY    57  54  88 CALM      30.59F
WILKERSON PASS CLOUDY    57  48  72 SW7       30.59F
$$

COZ069>075-292300-
...SAN LUIS VALLEY/SANGRE DE CRISTO MOUNTAINS...

CITY           SKY/WX    TMP DP  RH WIND       PRES   REMARKS
ALAMOSA        CLOUDY    71  53  52 N6        30.32F
LA VETA PASS   CLOUDY    57  48  72 SW8       30.51F THUNDER
SAGUACHE       CLOUDY    63  54  72 CALM      30.36F
$$

COZ035-036-038>040-292300-
...NORTHERN COLORADO FRONT RANGE...

CITY           SKY/WX    TMP DP  RH WIND       PRES   REMARKS
DENVER INTL AP CLOUDY    67  58  72 SE16      30.18F
DMNS CITY PARK   N/A     64  62  93 S1        30.20R
AURORA         TSTM      67  54  64 SE12G22   30.20S
FRONT RANGE AP NOT AVBL
ERIE MUNI ARPT LGT RAIN  69  58  67 E5        30.19R
BOULDER MUN AP CLOUDY    73  55  53 N25G38    30.21R
CENTENNIAL     CLOUDY    65  55  70 SE13      30.20F THUNDER
BROOMFIELD     LGT RAIN  66  59  77 SE13      30.22R
FORT COLLINS   CLOUDY    63  57  82 NE7       30.25R THUNDER
LONGMONT       CLOUDY    71  59  66 N18G31    30.23R
$$

COZ041-046-047-076>085-087-088-292300-
...PIKES PEAK/PALMER DIVIDE AND SOUTHERN FOOTHILLS...

CITY           SKY/WX    TMP DP  RH WIND       PRES   REMARKS
COLO. SPRINGS  TSTM      75  56  51 S6        30.21F
A. F. ACADEMY  LGT RAIN  63  61  94 NW12      30.24F
ELLICOTT       PTSUNNY   76  56  49 S14G20    30.19F
FALCON         CLOUDY    64  57  79 NE15      30.28S
FORT CARSON    MOSUNNY   76  56  49 SE8       30.17F
LIMON          LGT RAIN  61  58  90 NE12      30.21F
MONUMENT HILL  CLOUDY    59  55  88 E8        30.28F
TRINIDAD       LGT RAIN  71  60  68 W17       30.18F
$$

COZ042>045-048>051-090-091-292300-
...NORTHEAST COLORADO...

CITY           SKY/WX    TMP DP  RH WIND       PRES   REMARKS
GREELEY ARPT   CLOUDY    63  57  82 W13G25    30.21R
AKRON          PTSUNNY   82  54  37 SE17G28   30.13F
BURLINGTON     CLOUDY    81  59  47 SE17      30.12F
WRAY             N/A     88  50  27 E16       30.10F
STERLING       PTSUNNY   88  61  40 SE14      30.10F
HOLYOKE        MOSUNNY   86  59  39 E20G25    30.12F
FORT MORGAN    PTSUNNY   74  56  53 SW12      30.14S
$$

COZ086-089-092>099-292300-
...SOUTHEAST COLORADO...

CITY           SKY/WX    TMP DP  RH WIND       PRES   REMARKS
PUEBLO         MOSUNNY   81  58  45 SE8       30.09F
LA JUNTA       PTSUNNY   85  60  42 SE9       30.06F
LAMAR          PTSUNNY   88  61  40 SE16G23   30.02F
SPRINGFIELD      N/A     67  62  84 SE10      30.12F
$$



USA.gov is the U.S. government's official web portal to all federal, state and local government web resources and services.